User: anonymous   Login
Location: ???????
(55.4362°N, 38.1183°E)
Time: 15:36:53
(UTC+00:00)
Language:

Lacrosse 5 rocket - Orbit

View from above orbital plane
View from above orbital plane
View from above satellite
View from above satellite

Ground track
Ground track

The orbit data is extracted from the following two-line orbital elements,

1 28647U 05016B   21268.39162247  .00000476  00000-0  45441-4 0  9991
2 28647  56.9973 148.9338 0118361 262.3478  96.4104 15.06576008130013
Epoch (UTC): 25 September 2021 09:23:56
Eccentricity: 0.0118361
inclination: 56.9973°
perigee height: 465 km
apogee height: 628 km
right ascension of ascending node: 148.9338°
argument of perigee: 262.3478°
revolutions per day: 15.06576008
mean anomaly at epoch: 96.4104°
orbit number at epoch: 13001

The dashed part of the orbit path shows where the satellite is in the earth's shadow,  

DLR